Tracking 30166 objects as of 22-Jan-2025
HD Live streaming from Space Station
objects crossing your sky now

DMSP 5D-2 F11 DEB

Track DMSP 5D-2 F11 DEB now!
10-day predictions


NORAD ID: 28317
Int'l Code: 1991-082AE
Perigee: 749.7 km
Apogee: 922.5 km
Inclination: 98.9 °
Period: 101.5 minutes
Semi major axis: 7207 km
RCS: 0.0133 m2 (small)
Launch date: November 28, 1991
Source: United States (US)
Launch site: AIR FORCE WESTERN TEST RANGE (AFWTR)

Note: This is SATELLITE DEBRIS
Your satellite tracking list
Your tracking list is empty




NASA's NSSDC Master Catalog

Two Line Element Set (TLE):
1 28317U 91082AE  25021.57243779  .00003186  00000-0  14434-2 0  9991
2 28317  98.8823  34.5136 0119834 317.4220 166.0211 14.18930487 70636
Source of the keplerian elements: AFSPC